SILU-1 (SILKROAD 1) (42903 NORAD) Tracking and Keplerian Element Data

This shows tracking and keplerian element data for the satellite.

Feedback or suggestion? Click here.




ElementValue
Catalog42903
NameSILU-1 (SILKROAD 1)
Epoch Orbit7849
Epoch Day349.13201691
Epoch Year2018
RAAN303.8518
Inclination42.7732
Eccentricity0.0014596
Argument of Perigee154.6707
Mean Anonmoly319.2718
Mean Motion15.83948892
Decay Rate0.00049861
L11 42903U 17021F 18349.13201691 .00049861 00000-0 21552-3 0 9993
L22 42903 42.7732 303.8518 0014596 154.6707 319.2718 15.83948892 78494

Live tracking and technical data element details for SILU-1 (SILKROAD 1) (NORAD 42903). SILU-1 (SILKROAD 1) can be tracked NOW for your location showing map with azimuth and elevation plus other details from your city location.

Track the satellite on the map from your city or location and see movement details for azimuth, elevation, latitude, longitude, range, height, and movement on the map or in text.







IsCatalogInMostPopularTable: catalog: 42903, numindb: 182
Update: records affected: 1



GetName: 42903 SILU-1 (SILKROAD 1)

Hit Count: updated at: Sat, 15 Dec 2018 13:33:07 GMT